Location: Brahman Valley
(40.6513°N, 111.8855°W)
Time: 03:04:43
(UTC+00:00)

Tiros 1 - Visible Passes

Search period start: 12 May 2021 00:00
Search period end: 22 May 2021 00:00
Orbit: 630 x 664 km, 48.4° (Epoch: 11 May)

Date Brightness Start Highest point End Pass type
(mag) Time Alt. Az. Time Alt. Az. Time Alt. Az.
12 May 7.6 08:48:38 59° NNE 08:48:38 59° NNE 08:52:37 10° ENE visible
12 May 8.6 10:26:15 10° WNW 10:30:35 34° N 10:34:55 10° ENE visible
13 May 9.5 07:35:19 16° ENE 07:35:19 16° ENE 07:36:21 10° ENE visible
13 May 8.1 09:12:57 39° NW 09:14:00 45° NNW 09:18:35 10° NE visible
13 May 8.8 10:52:41 10° WNW 10:56:58 32° N 11:01:13 10° ENE visible
14 May 8.5 07:59:35 35° NE 07:59:35 35° NE 08:02:24 10° ENE visible
14 May 8.6 09:37:12 17° WNW 09:40:18 34° N 09:44:40 10° ENE visible
14 May 8.7 11:18:55 10° NW 11:23:21 36° NNE 11:27:43 10° E visible
15 May 8.0 08:23:46 47° NNW 08:23:46 47° NNW 08:28:21 10° NE visible
15 May 8.8 10:02:23 10° WNW 10:06:41 32° N 10:10:57 10° ENE visible
16 May 9.0 07:10:15 24° ENE 07:10:15 24° ENE 07:12:10 10° ENE visible
16 May 8.6 08:47:51 23° WNW 08:50:01 35° N 08:54:25 10° ENE visible
16 May 8.7 10:28:39 10° WNW 10:33:04 36° N 10:37:26 10° ENE visible
17 May 8.2 07:34:11 45° N 07:34:11 45° N 07:38:08 10° NE visible
17 May 8.9 09:12:05 10° WNW 09:16:24 32° N 09:20:41 10° ENE visible
17 May 8.2 10:54:42 10° NW 10:59:21 49° NNE 11:03:56 10° E visible
18 May 9.0 06:20:15 22° ENE 06:20:15 22° ENE 06:21:56 10° ENE visible
18 May 8.6 07:57:48 26° NW 07:59:44 36° N 08:04:10 10° ENE visible
18 May 8.7 09:38:22 10° WNW 09:42:47 35° N 09:47:09 10° ENE visible
18 May 7.3 11:20:40 10° WNW 11:25:27 81° NNE 11:30:11 10° ESE visible
19 May 9.6 05:05:34 10° ENE 05:05:34 10° ENE 05:05:34 10° ENE visible
19 May 7.9 06:43:00 51° NNW 06:43:11 52° NNW 06:47:53 10° NE visible
19 May 8.9 08:21:47 10° WNW 08:26:07 32° N 08:30:24 10° ENE visible
19 May 8.2 10:04:26 10° NW 10:09:05 47° NNE 10:13:39 10° E visible
20 May 8.5 03:41:47 10° S 03:45:08 19° SE 03:48:30 10° E visible
20 May 7.0 05:22:01 10° WSW 05:26:51 88° SSE 05:31:41 10° ENE visible
20 May 8.6 07:04:58 10° W 07:09:27 37° NNW 07:13:55 10° NE visible
20 May 8.8 08:48:05 10° WNW 08:52:29 34° N 08:56:51 10° ENE visible
20 May 7.3 10:30:24 10° WNW 10:35:13 77° NNE 10:39:57 10° ESE visible
21 May 7.5 04:06:17 10° SSW 04:10:46 41° SE 04:15:17 10° ENE visible
21 May 7.8 05:48:11 10° W 05:52:55 54° NNW 05:57:39 10° NE visible
21 May 8.9 07:31:29 10° WNW 07:35:49 32° N 07:40:08 10° ENE visible
21 May 8.3 09:14:11 10° NW 09:18:48 45° NNE 09:23:23 10° E visible
21 May 7.2 10:56:28 10° WNW 11:01:09 56° SW 11:05:46 10° SE visible
